Weather in Pavia

Italy     45°11′20″N   9°08′55″E
temp.,
°C
wind,
m/s
gust,
m/s
humid.,
%
clouds,
%
prec.,
mm/h
press.,
hPa
HPBL,
m
10 may, mon
mon1023:00+15e3380100 0.0 101837
02:00+14e228598 0.0 101743
05:00+11e228537 0.0 101630
08:00+14se117825 0.0 1018139
11:00+19e346695 0.0 1016658
14:00+21e2259100 0.0 10161097
17:00+21e2361100 0.1 10141143
20:00+18sse1182100 1.2 101312
11 may, tue
tue1123:00+15nnw229694 2.8 101439
02:00+15e7139299 2.9 1012400
05:00+14e61194100 1.3 1011322
08:00+14e61396100 2.9 1010489
11:00+14ese61191100 1.1 1010576
14:00+14e61295100 5.8 1009631
17:00+13ene4998100 12.4 1007519
20:00+13ne3798100 24.6 1006490
12 may, wed
wed1223:00+12nnw2498100 15.0 1007169
02:00+12nw3697100 21.8 1006374
05:00+11wsw3498100 1.4 1006162
08:00+12wsw3593100 1.5 1006244
11:00+15wsw4579100 0.0 1005826
14:00+18wsw2265100 0.0 10041064
17:00+18ene326698 0.0 1004909
20:00+15se3482100 0.9 100366
13 may, thu
thu1323:00+12ese2489100 0.1 100596
02:00+12s3491100 0.3 1004115
05:00+11wsw359498 0.0 1003145
08:00+12wsw3489100 0.0 1003209
11:00+16w3468100 0.0 1004611
14:00+19w2254100 0.0 10031020
17:00+20ssw1250100 0.0 10021206
20:00+16se2274100 0.2 100323
14 may, fri
fri1423:00+12nw228699 0.5 100517
02:00+12ne229589 1.8 100739
05:00+10ene2399100 0.3 100757
08:00+12e2294100 1.1 1009273
11:00+15ese2281100 0.3 1010653
14:00+17ssw3370100 2.6 1009920
17:00+17wsw576940 1.7 10101338
20:00+13wnw2482100 2.1 1010114